Wind_Speed
16 16 17 16 16 17 17 17 16 14 13 12 13 14 14 14 14 15 15 15 14 14 14 14 15 15 15 16 16 16 17 18 19 20 20 22 23 24 25 26 27 29 29 30
16 17 17 17 16 18 18 17 16 15 13 13 14 15 15 15 15 16 16 16 16 16 16 16 16 16 17 18 18 18 19 20 21 22 23 24 25 26 27 28 29 30 32 33
17 18 18 17 17 18 19 19 18 17 15 16 17 17 17 17 17 17 18 18 18 18 19 19 18 18 18 19 19 20 21 22 23 24 26 26 27 28 29 30 31 32 33 34
18 19 21 17 18 19 19 19 19 18 18 18 18 19 18 18 19 19 19 20 19 20 21 20 21 21 21 21 22 22 23 25 26 27 28 29 30 30 31 32 33 34 35 36
18 19 19 17 18 18 18 18 19 19 19 20 19 19 20 20 21 22 22 22 22 23 23 23 23 22 22 22 23 24 26 27 28 29 30 31 32 33 33 34 35 36 37 37
19 20 20 18 19 19 19 19 19 19 20 19 19 21 22 22 24 24 24 24 24 24 24 24 25 24 24 24 25 26 27 29 30 31 32 33 34 35 35 35 36 37 38 38
20 20 19 19 20 20 20 19 19 20 20 20 21 22 23 24 25 26 26 25 25 24 24 25 25 25 25 26 26 28 29 30 31 32 33 35 35 36 36 37 38 39 39 40
20 20 19 19 20 21 21 20 20 21 21 22 22 23 24 25 27 27 26 25 25 25 26 25 25 26 27 27 28 29 30 31 33 34 36 37 37 38 39 39 40 41 41 41
20 20 20 20 20 21 20 20 21 22 23 22 23 23 24 25 26 27 27 26 26 27 26 26 27 29 28 29 30 31 32 33 35 36 37 38 39 41 41 42 43 43 44 44
20 20 20 20 21 21 21 22 22 23 24 24 24 24 25 25 26 26 26 26 26 26 26 27 29 29 30 31 32 33 34 36 37 38 39 40 42 43 44 44 45 45 46 46
21 21 22 22 23 23 23 23 24 25 25 25 25 25 24 24 24 25 25 25 25 26 26 28 29 31 32 33 34 35 36 38 39 40 41 43 44 45 46 45 46 48 48 49
23 24 24 24 24 24 24 25 25 25 25 24 24 24 25 25 25 25 25 25 26 27 29 30 31 32 34 35 36 37 38 39 41 42 43 45 47 48 48 49 50 50 51 51
24 24 24 24 25 25 25 25 25 25 25 24 24 24 24 25 25 25 26 27 28 29 30 32 33 35 36 38 39 40 41 42 43 45 47 48 49 50 50 51 52 52 53 53
23 24 25 25 25 25 24 25 25 25 25 24 24 24 25 26 26 27 28 29 30 31 33 34 35 37 38 39 41 42 44 45 46 48 50 51 52 53 53 54 54 53 54 54
23 23 24 25 26 26 26 26 26 25 25 25 25 24 25 26 28 29 30 31 32 34 35 37 38 39 41 42 43 45 46 48 49 51 52 54 55 55 55 56 56 56 56 56
23 23 24 25 25 25 25 25 25 26 27 27 26 27 27 28 30 31 32 33 35 36 38 39 41 42 43 45 46 47 48 50 51 53 54 55 56 57 58 58 58 58 58 57
22 23 24 25 25 25 25 25 25 25 26 26 27 28 29 30 32 33 34 36 37 39 40 42 43 44 46 47 48 50 51 52 54 55 56 57 58 59 60 60 60 59 59 58
23 24 24 24 24 24 25 25 25 25 26 27 28 29 31 33 35 36 37 39 40 42 43 44 45 46 48 49 50 52 53 54 55 56 57 58 59 59 60 60 60 59 58 57
24 24 23 23 23 24 25 25 26 27 28 29 31 34 36 37 38 39 41 42 43 44 46 47 48 49 50 52 53 54 55 56 56 57 57 58 58 59 59 59 58 57 55 53
25 24 24 24 24 24 24 25 27 29 32 34 36 37 39 40 41 43 44 45 46 47 48 49 50 51 53 54 54 55 55 56 56 57 57 57 57 56 56 55 54 52 49 47
26 26 25 26 27 28 29 30 32 35 36 38 39 41 42 43 44 45 46 46 47 48 49 50 51 52 53 53 54 54 54 55 55 54 54 53 52 51 50 49 47 45 43 41
28 28 29 30 32 33 35 36 37 38 39 40 42 43 44 44 45 46 47 48 49 50 51 51 52 52 52 52 52 52 52 51 50 50 49 48 47 46 45 43 42 40 38 36
31 32 34 36 37 38 38 39 40 41 42 43 44 45 46 47 47 48 48 49 50 50 51 51 51 50 50 50 49 48 47 47 46 46 45 45 44 43 41 39 38 36 33 31
34 36 38 40 40 41 41 42 43 44 45 46 46 47 47 47 48 48 48 48 48 48 48 47 47 47 46 45 45 44 44 44 44 43 42 41 40 39 37 36 34 31 29 27
40 41 42 43 43 44 45 45 45 46 46 46 46 46 46 46 45 45 45 45 45 44 44 43 43 43 43 42 42 42 41 41 40 39 38 37 36 35 33 31 28 25 23 20
42 43 44 44 45 45 46 45 45 45 45 45 45 45 44 44 44 43 42 42 41 41 40 40 40 40 39 39 39 38 38 37 36 35 34 33 32 30 27 24 22 19 17 15
42 43 43 44 44 45 45 45 45 44 44 44 43 42 42 41 40 40 40 40 39 38 38 38 37 36 36 36 35 35 34 33 32 31 30 28 26 24 21 19 17 15 12 10
Wind_Direction
265 267 265 264 267 273 273 272 271 267 264 262 263 264 264 262 262 262 261 259 257 254 252 251 251 253 255 258 262 266 271 275 280 284 288 291 294 297 300 304 305 308 310 312
262 267 270 266 270 276 274 271 271 267 264 264 263 261 262 264 264 262 260 258 259 257 255 255 256 258 260 264 269 272 275 279 282 286 289 291 294 297 300 302 304 305 308 310
265 267 269 270 273 274 272 272 273 272 267 263 262 262 261 260 262 261 260 260 260 260 259 260 263 264 267 269 273 275 277 280 282 285 288 291 294 296 299 301 303 305 307 309
268 270 270 276 274 271 272 271 272 272 270 268 264 263 263 263 263 261 262 260 260 260 260 261 264 267 270 273 275 277 280 282 285 287 290 292 295 297 298 299 302 304 306 308
267 270 271 273 274 271 271 271 272 273 272 270 267 266 267 266 265 262 260 258 259 262 264 262 266 269 271 274 277 278 280 283 286 288 290 292 294 296 296 298 301 303 305 307
266 269 271 272 273 273 271 271 272 272 271 270 271 270 270 269 268 265 264 260 260 263 265 266 268 270 272 276 278 280 282 285 288 290 291 292 294 295 296 298 300 302 304 305
266 270 274 274 273 272 272 273 268 269 270 271 272 272 271 271 269 268 266 262 260 263 264 268 270 272 275 277 278 279 282 285 288 289 291 292 294 295 296 298 300 300 302 304
262 267 272 272 270 272 273 271 270 271 272 273 272 271 271 271 267 265 265 261 262 263 266 268 270 273 276 278 279 281 283 285 287 288 290 290 293 295 296 297 298 299 301 302
263 266 268 268 269 270 269 270 271 274 274 272 273 271 271 270 264 262 262 263 264 264 267 269 272 273 275 277 279 282 284 286 286 287 289 290 293 294 295 296 297 298 299 301
261 264 265 268 267 268 268 270 272 273 273 273 272 271 271 270 267 265 267 267 267 268 269 270 272 274 276 278 280 282 284 285 286 287 288 289 292 293 293 295 295 297 299 299
261 264 265 265 265 266 267 269 270 270 272 271 270 270 270 270 267 266 268 267 269 272 274 275 276 277 279 280 281 282 283 284 286 287 289 291 292 292 294 295 297 297 297 298
262 264 265 267 267 268 269 270 269 269 270 268 269 269 270 270 269 269 269 271 273 273 274 275 277 278 280 282 282 283 284 285 287 288 288 290 291 292 293 294 295 295 296 296
264 264 265 267 268 268 269 270 270 266 264 266 267 267 270 272 272 272 273 275 277 276 276 277 279 281 281 282 283 284 286 286 287 288 289 290 291 291 291 292 294 294 294 295
264 265 265 266 267 267 268 269 268 265 263 264 265 268 270 272 273 274 276 277 279 280 279 281 282 283 283 283 283 284 286 288 288 288 289 290 291 291 291 292 292 293 293 294
266 268 267 267 268 268 268 267 265 265 265 264 266 269 272 274 275 276 278 279 280 282 283 284 284 285 285 286 287 287 288 289 289 289 290 290 290 291 291 292 293 293 293 294
266 266 267 268 268 268 267 265 264 263 265 266 269 273 275 276 278 279 280 281 283 284 285 286 287 287 288 288 289 289 289 289 290 290 290 290 291 291 291 292 293 293 293 293
267 267 269 269 268 267 267 266 263 261 263 269 274 277 279 280 281 282 284 285 286 287 288 288 289 289 289 289 289 290 290 290 291 291 291 291 291 291 292 292 292 292 292 292
269 270 271 271 269 268 268 268 268 268 271 276 279 281 282 283 284 285 287 288 288 289 289 290 290 290 290 291 291 291 291 291 291 291 291 292 292 292 292 292 292 292 292 291
274 277 277 275 272 271 272 273 276 277 278 280 283 284 285 286 287 288 289 289 290 291 291 291 291 292 292 292 292 293 292 292 292 292 292 293 293 293 293 293 293 293 292 291
279 279 278 277 275 273 273 275 278 281 283 285 286 287 288 288 289 290 290 291 291 292 292 292 293 293 294 294 294 294 294 294 294 294 294 294 294 294 295 295 295 294 293 291
277 276 275 274 274 276 278 280 282 285 287 287 288 289 290 290 291 292 292 293 293 293 294 294 294 295 295 295 295 295 295 295 295 295 296 296 296 296 297 297 296 295 293 291
276 274 273 275 277 280 283 285 287 289 289 290 291 291 292 292 293 293 294 294 295 295 295 295 296 296 296 296 296 296 296 297 297 297 298 298 298 299 298 298 297 295 294 292
275 275 278 281 284 286 287 288 289 290 291 291 292 292 293 294 294 295 295 295 295 295 296 296 296 296 296 296 297 297 298 298 299 299 299 299 300 300 299 298 297 295 292 291
279 281 283 285 287 289 291 291 292 292 293 293 294 294 295 295 296 296 296 296 296 296 296 296 296 296 297 297 297 298 299 300 300 300 300 300 301 301 300 299 297 295 292 289
283 285 287 289 290 291 292 293 293 293 294 295 295 296 296 296 296 296 296 296 296 296 296 297 297 297 297 298 298 298 299 300 300 300 301 301 302 303 301 300 298 293 289 288
286 287 288 289 290 292 293 293 294 294 295 295 296 296 296 296 296 296 296 296 297 297 297 298 298 298 298 299 299 299 300 300 300 301 302 303 303 303 302 301 299 294 288 284
288 289 290 291 292 293 293 294 295 295 295 296 296 296 295 296 295 296 297 297 297 297 298 298 299 299 299 301 302 301 301 301 302 302 303 304 304 304 302 299 298 296 287 279
Height
5830 5830 5830 5830 5831 5831 5832 5832 5833 5834 5834 5835 5835 5836 5836 5836 5836 5836 5836 5836 5836 5836 5836 5835 5835 5835 5835 5835 5834 5834 5833 5833 5832 5831 5830 5828 5827 5825 5823 5820 5818 5815 5812 5809
5825 5825 5825 5825 5826 5827 5827 5828 5828 5829 5830 5831 5831 5832 5832 5832 5832 5832 5832 5832 5832 5832 5832 5831 5831 5831 5830 5830 5829 5828 5828 5827 5826 5824 5823 5821 5820 5818 5816 5813 5811 5808 5805 5801
5820 5819 5819 5821 5822 5822 5822 5823 5824 5824 5826 5826 5827 5827 5827 5827 5827 5827 5827 5827 5827 5827 5827 5827 5826 5825 5824 5824 5823 5822 5821 5820 5819 5818 5816 5814 5812 5811 5808 5806 5803 5800 5797 5794
5814 5815 5815 5819 5817 5817 5817 5818 5819 5819 5820 5821 5821 5822 5822 5822 5822 5822 5822 5822 5821 5821 5821 5820 5820 5819 5818 5817 5817 5816 5815 5814 5812 5810 5809 5807 5805 5803 5801 5798 5795 5792 5789 5786
5809 5809 5810 5812 5812 5811 5812 5813 5813 5814 5815 5815 5815 5816 5816 5816 5815 5815 5815 5814 5814 5814 5813 5813 5812 5812 5811 5811 5810 5809 5808 5806 5805 5803 5801 5799 5797 5795 5792 5790 5787 5783 5780 5777
5803 5804 5805 5808 5807 5806 5807 5807 5808 5808 5809 5809 5809 5810 5810 5809 5809 5808 5808 5807 5807 5806 5806 5805 5805 5804 5804 5803 5802 5801 5800 5798 5797 5795 5793 5791 5789 5786 5783 5781 5778 5774 5771 5767
5798 5798 5799 5801 5800 5800 5802 5803 5802 5802 5802 5802 5802 5802 5802 5801 5801 5800 5800 5799 5799 5799 5798 5798 5797 5797 5796 5796 5795 5793 5792 5790 5789 5786 5784 5782 5780 5777 5774 5771 5768 5765 5762 5757
5792 5793 5796 5794 5794 5795 5795 5795 5795 5795 5795 5795 5795 5794 5794 5793 5793 5792 5792 5791 5791 5791 5791 5790 5790 5789 5788 5787 5786 5785 5783 5782 5780 5777 5775 5773 5770 5768 5764 5761 5758 5755 5751 5747
5787 5789 5788 5788 5788 5788 5789 5789 5789 5789 5789 5788 5788 5787 5786 5785 5785 5784 5784 5784 5783 5783 5783 5782 5782 5781 5780 5779 5777 5776 5774 5773 5770 5768 5766 5763 5760 5758 5754 5751 5747 5744 5740 5736
5780 5781 5781 5781 5781 5782 5782 5782 5782 5782 5781 5781 5780 5779 5778 5778 5777 5776 5776 5776 5776 5775 5775 5774 5773 5772 5771 5770 5768 5767 5765 5763 5761 5758 5756 5753 5750 5747 5743 5739 5735 5732 5728 5724
5774 5775 5775 5775 5775 5775 5775 5775 5775 5774 5774 5773 5773 5772 5771 5770 5770 5769 5769 5768 5768 5767 5767 5766 5765 5764 5763 5761 5759 5757 5755 5753 5750 5747 5745 5742 5738 5735 5731 5727 5723 5719 5715 5711
5767 5768 5768 5768 5768 5768 5768 5767 5767 5767 5766 5766 5765 5765 5764 5763 5762 5762 5761 5761 5760 5759 5758 5757 5756 5755 5753 5751 5749 5747 5745 5742 5739 5736 5733 5730 5726 5723 5718 5714 5710 5705 5701 5697
5759 5760 5760 5760 5760 5760 5760 5760 5759 5759 5759 5758 5757 5757 5757 5756 5755 5754 5753 5753 5752 5750 5749 5748 5747 5745 5743 5741 5738 5736 5733 5730 5727 5724 5721 5717 5713 5709 5706 5701 5696 5691 5686 5682
5752 5752 5753 5753 5753 5752 5752 5752 5751 5751 5750 5750 5750 5749 5749 5748 5747 5746 5745 5744 5743 5741 5740 5738 5736 5734 5732 5729 5727 5724 5721 5718 5714 5711 5707 5703 5699 5694 5690 5686 5682 5677 5672 5667
5745 5745 5745 5745 5745 5744 5744 5743 5743 5743 5742 5742 5742 5741 5741 5740 5739 5738 5736 5735 5733 5732 5730 5728 5725 5723 5720 5717 5714 5711 5707 5704 5700 5696 5692 5687 5683 5678 5674 5669 5665 5661 5656 5651
5737 5737 5737 5737 5737 5736 5736 5735 5735 5734 5734 5733 5733 5732 5732 5731 5730 5728 5727 5725 5723 5721 5718 5716 5713 5710 5707 5704 5701 5697 5693 5689 5685 5680 5676 5671 5666 5661 5657 5652 5647 5643 5638 5634
5730 5730 5729 5729 5728 5728 5728 5727 5726 5726 5725 5725 5724 5723 5722 5721 5720 5718 5716 5714 5711 5709 5706 5703 5700 5697 5694 5690 5686 5682 5678 5674 5669 5664 5659 5654 5649 5644 5639 5634 5629 5625 5621 5616
5723 5723 5722 5722 5721 5720 5719 5719 5718 5717 5716 5716 5715 5714 5712 5711 5709 5707 5704 5702 5699 5696 5693 5690 5687 5683 5679 5675 5671 5667 5662 5657 5652 5647 5642 5637 5631 5626 5621 5616 5611 5606 5602 5598
5715 5715 5715 5714 5713 5712 5712 5711 5710 5709 5708 5706 5705 5704 5702 5699 5697 5695 5692 5689 5686 5683 5679 5676 5672 5668 5664 5659 5655 5650 5645 5640 5635 5630 5624 5619 5613 5608 5602 5597 5592 5588 5583 5580
5708 5707 5707 5706 5705 5704 5703 5702 5701 5700 5698 5696 5694 5692 5690 5688 5685 5682 5679 5676 5672 5669 5665 5661 5657 5652 5648 5643 5638 5633 5628 5623 5617 5612 5607 5601 5596 5590 5585 5580 5575 5571 5566 5563
5701 5700 5698 5697 5696 5695 5694 5692 5691 5689 5687 5685 5683 5680 5678 5675 5672 5668 5665 5662 5658 5654 5650 5645 5641 5636 5631 5626 5621 5616 5611 5606 5600 5595 5590 5584 5579 5574 5569 5564 5559 5555 5552 5549
5692 5691 5690 5688 5687 5685 5684 5682 5680 5678 5675 5673 5670 5667 5664 5661 5658 5654 5650 5647 5643 5638 5634 5629 5624 5620 5615 5610 5605 5600 5595 5590 5584 5579 5574 5569 5564 5560 5555 5550 5546 5542 5539 5536
5683 5681 5680 5678 5676 5675 5673 5670 5668 5666 5663 5660 5657 5654 5651 5647 5643 5640 5636 5632 5627 5623 5618 5614 5609 5604 5599 5595 5590 5585 5580 5575 5571 5566 5561 5556 5551 5547 5542 5538 5534 5531 5528 5525
5672 5670 5669 5667 5665 5663 5660 5658 5655 5652 5649 5646 5643 5639 5636 5633 5629 5625 5621 5617 5612 5608 5604 5599 5594 5590 5585 5581 5576 5572 5567 5563 5558 5553 5549 5544 5539 5535 5531 5527 5524 5521 5518 5516
5661 5659 5657 5655 5652 5650 5647 5644 5642 5638 5635 5632 5628 5625 5621 5618 5614 5610 5606 5602 5598 5594 5590 5585 5581 5577 5572 5568 5564 5559 5555 5551 5546 5542 5537 5533 5529 5525 5521 5517 5514 5512 5510 5509
5650 5647 5645 5642 5639 5636 5633 5631 5628 5624 5621 5618 5614 5610 5607 5603 5600 5596 5592 5589 5585 5581 5577 5573 5569 5564 5560 5556 5552 5548 5544 5540 5536 5532 5528 5524 5520 5516 5513 5510 5507 5505 5504 5503
5638 5635 5632 5629 5626 5623 5620 5617 5614 5610 5607 5604 5601 5597 5593 5590 5587 5583 5580 5576 5573 5569 5565 5561 5557 5553 5549 5545 5541 5537 5533 5530 5526 5522 5519 5515 5512 5509 5506 5504 5502 5500 5500 5499